Probability
0 0 1 1 1 0 0 0 0 0 0 0 0 0 0 0 1 0 0 0 0 0 0 2 5 8 11 12 12 11 11 9 8 6 4 3 3 2 1 0 0 0 0 0
0 0 0 1 1 0 0 0 0 0 0 0 0 0 0 0 1 1 1 1 1 0 0 2 5 8 11 11 10 9 9 9 8 6 4 3 3 3 3 2 2 2 1 1
0 0 0 1 1 0 0 0 0 0 0 0 0 0 0 0 1 2 2 2 2 1 1 2 5 8 10 10 8 7 6 7 8 6 5 4 5 5 5 5 5 5 4 3
0 0 0 1 1 0 0 0 0 0 0 0 0 0 0 0 1 2 3 3 3 3 3 3 4 7 9 9 8 5 5 6 7 6 5 5 6 6 6 6 6 6 6 6
0 0 0 0 0 0 0 0 0 0 0 0 0 0 0 0 0 1 2 3 3 3 4 4 5 6 7 7 6 5 5 6 7 6 5 5 5 5 5 4 4 5 6 7
0 0 0 0 0 0 0 0 0 0 0 0 0 0 0 0 0 0 2 4 4 4 5 5 4 4 5 5 4 4 3 4 5 5 5 5 5 4 4 3 3 4 5 6
0 0 0 0 0 0 0 0 0 0 0 0 0 0 0 0 0 0 2 5 6 5 4 4 3 3 3 2 3 3 2 2 4 5 6 6 5 4 4 4 3 3 4 4
0 0 0 0 0 0 0 0 0 0 0 0 0 0 1 1 1 0 2 4 5 4 2 2 2 3 2 1 1 1 2 2 4 5 6 5 5 5 6 4 3 3 3 3
0 0 0 0 0 0 0 0 0 0 0 0 0 0 1 2 1 0 1 2 2 3 2 2 2 3 2 1 1 1 3 5 5 6 6 4 4 6 6 5 3 3 3 3
0 0 0 0 0 0 0 0 0 0 0 0 0 0 1 1 0 0 1 1 2 3 4 3 2 2 1 1 3 4 6 7 6 6 5 5 4 5 5 5 4 3 3 3
0 0 0 0 0 0 0 0 0 0 0 0 0 0 0 0 1 1 3 3 3 4 5 5 3 2 1 2 5 7 7 8 7 5 4 4 4 4 5 6 4 3 3 3
0 0 0 0 0 0 0 0 0 0 0 0 0 0 0 1 2 3 5 6 5 5 5 5 4 3 2 2 5 6 6 7 7 6 4 4 4 4 6 7 6 5 3 2
0 0 0 0 0 0 0 0 0 0 0 0 0 0 1 2 4 4 6 7 8 7 6 5 4 3 4 4 4 5 6 7 7 7 6 4 4 5 7 9 8 6 3 1
0 0 0 0 0 0 0 0 0 0 0 0 0 0 1 2 4 5 6 8 9 9 8 6 5 4 5 6 5 6 8 9 9 10 8 6 5 5 7 8 7 5 3 2
0 0 0 0 0 0 0 0 0 0 0 0 0 0 0 2 4 6 7 9 9 9 9 9 8 7 6 6 7 9 11 12 12 13 12 10 9 8 7 7 7 5 3 3
0 0 0 0 0 0 0 0 0 0 0 0 1 1 2 4 7 7 9 11 11 9 9 10 11 9 8 8 9 11 12 13 13 15 15 15 14 11 10 10 9 8 6 5
0 0 0 0 0 0 0 0 0 1 1 1 1 2 4 7 9 9 10 11 10 8 8 10 12 12 11 11 11 12 13 13 13 14 16 17 16 14 13 14 13 10 8 8
0 0 0 0 0 0 0 0 1 2 2 1 2 3 5 8 9 8 8 8 8 7 7 9 11 13 14 12 12 13 15 16 15 16 17 17 15 14 15 15 14 12 10 10
0 0 0 0 0 0 0 0 1 2 2 2 4 5 7 8 8 7 6 6 7 7 7 8 10 12 12 10 10 13 16 17 17 17 17 15 13 13 14 14 13 11 9 8
0 0 0 0 0 0 0 0 0 1 1 3 5 7 8 8 7 6 7 9 9 7 6 7 10 11 10 8 8 11 14 14 13 14 13 11 10 11 11 12 11 8 7 5
0 0 0 0 0 0 0 0 0 1 1 2 4 6 7 7 6 8 11 12 11 8 5 6 8 10 10 9 9 11 12 10 8 8 9 8 7 8 9 8 7 5 4 3
0 0 0 0 0 0 0 0 0 1 1 3 4 4 5 6 7 10 12 12 10 8 6 6 7 10 11 11 11 11 11 10 9 9 9 7 6 6 5 4 2 2 2 3
0 0 0 0 0 0 0 0 0 1 2 3 4 4 3 5 8 10 10 9 8 7 6 7 8 10 12 11 10 9 10 12 13 12 10 9 8 5 3 1 1 1 2 3
0 0 0 0 0 0 0 0 0 1 2 3 4 5 5 5 8 9 8 6 5 4 5 7 8 9 11 11 9 9 10 13 15 13 11 11 10 7 3 1 1 2 3 3
0 0 0 0 0 0 0 0 0 1 2 2 2 5 6 7 8 8 6 4 1 1 3 5 7 9 10 11 11 11 10 11 13 12 11 10 10 7 3 1 1 1 1 1
0 0 0 0 0 0 0 0 0 0 1 1 1 4 6 8 7 6 4 2 0 0 2 5 8 9 10 12 13 12 10 9 9 9 9 8 8 5 2 0 0 0 0 0
Wind_Speed
2 3 2 5 6 5 3 2 3 4 2 1 2 3 3 5 5 5 5 6 7 7 5 5 6 6 6 6 6 6 6 5 5 3 2 2 1 1 0 1 1 1 1 2
4 2 6 3 3 3 2 1 2 3 1 1 1 3 3 5 7 7 8 8 8 6 5 6 6 6 7 7 6 6 6 6 5 3 2 2 2 1 1 0 0 1 1 2
5 5 3 3 3 2 2 3 3 2 3 3 1 4 2 2 3 3 4 5 6 9 9 8 7 7 7 7 7 7 6 6 5 5 3 3 2 2 1 0 0 0 1 2
3 4 2 2 3 4 3 4 4 2 2 2 1 3 6 3 3 4 5 5 7 8 8 8 8 8 8 7 6 5 6 5 5 5 4 5 3 2 2 1 1 0 1 1
4 2 3 3 4 5 4 1 2 2 2 1 2 1 7 1 4 7 7 7 7 8 9 9 9 8 7 6 6 5 5 4 4 4 5 4 3 2 1 1 1 0 0 1
4 2 4 4 2 4 4 5 5 5 4 1 2 2 7 4 7 6 7 7 7 7 7 7 6 6 5 5 5 5 5 4 4 4 4 4 4 4 3 2 1 0 0 0
3 3 2 2 2 2 4 6 4 4 3 5 2 2 9 7 6 6 7 7 7 7 7 7 7 7 6 6 6 6 6 4 4 4 4 4 4 4 4 3 2 1 1 1
2 5 4 2 5 5 4 8 7 5 4 4 2 5 8 5 4 4 4 4 5 6 7 8 8 8 7 8 7 7 7 6 5 5 4 4 4 3 3 3 3 2 2 2
6 5 4 2 2 7 5 3 5 7 2 1 5 6 8 2 2 2 3 3 5 6 8 8 8 8 8 8 8 8 7 6 6 6 5 4 4 4 3 3 2 2 2 2
8 3 4 2 3 3 4 7 5 5 4 3 5 5 5 5 5 3 3 4 5 5 6 7 7 7 7 7 6 6 6 6 6 5 4 3 4 4 4 3 3 2 2 2
5 4 3 2 3 4 3 4 5 4 5 6 3 8 6 7 6 6 6 5 6 6 6 7 7 7 7 6 6 6 6 5 4 4 3 3 3 4 3 3 3 3 2 2
4 6 2 4 3 2 4 6 7 5 4 4 4 9 4 4 4 5 5 4 4 5 5 6 7 7 6 6 6 6 6 5 5 4 4 4 3 3 3 3 3 3 3 2
6 6 2 5 5 1 1 3 4 6 5 4 4 8 3 1 0 2 3 3 3 4 4 4 5 6 6 7 6 6 6 5 5 5 4 3 3 3 3 3 3 2 2 2
7 5 7 8 8 4 2 3 5 6 5 5 8 8 5 3 3 2 2 3 3 3 5 5 4 4 5 5 5 6 5 5 5 5 5 4 3 4 4 3 3 3 3 3
5 4 4 5 4 3 3 3 5 5 7 8 8 8 8 5 5 4 4 3 3 3 4 5 5 4 3 3 4 5 5 5 5 5 5 4 4 3 3 3 3 3 3 3
3 4 3 2 2 3 2 2 3 3 3 4 3 7 5 2 2 2 3 5 5 5 6 6 6 5 4 4 4 4 4 4 5 5 5 4 3 2 2 2 2 2 2 3
2 4 4 3 1 1 3 4 4 3 3 5 7 7 1 2 4 5 5 5 6 6 6 6 6 5 5 5 5 5 5 4 5 4 4 4 3 3 3 2 2 3 3 2
5 4 4 2 2 4 6 2 3 3 3 3 3 3 4 4 3 3 3 5 5 5 5 5 4 4 3 3 3 4 4 4 4 4 3 4 4 3 2 2 2 2 2 2
4 7 5 4 3 4 4 1 2 2 3 1 2 2 0 2 2 2 2 3 4 5 4 4 4 4 4 4 4 4 4 3 3 3 3 4 4 3 3 3 3 2 1 2
5 5 6 4 4 5 6 3 1 2 3 2 1 2 2 4 2 4 2 2 2 3 3 4 4 4 4 3 4 5 4 3 3 3 3 3 4 4 4 3 2 1 1 2
3 4 3 3 3 5 5 4 1 4 6 3 2 3 4 4 4 2 1 1 2 3 3 4 4 4 3 4 5 5 3 4 4 3 3 3 3 4 4 3 2 2 1 1
4 4 3 3 3 6 3 2 3 5 3 1 2 3 3 1 0 2 3 2 3 3 3 3 3 3 2 3 5 4 4 3 2 3 3 3 3 3 3 3 2 2 2 1
3 5 5 6 6 4 2 3 3 2 2 2 3 1 2 2 1 2 2 2 2 3 3 3 3 3 2 2 4 4 3 2 3 3 2 2 2 2 2 3 3 2 2 2
2 1 2 1 4 3 2 2 1 1 2 2 2 2 3 3 3 2 2 2 2 2 2 2 3 2 1 1 2 3 3 3 4 3 2 2 2 2 1 2 2 2 2 2
3 1 1 2 4 3 3 2 2 1 0 1 2 2 3 5 4 3 2 2 2 2 1 2 2 1 1 1 1 1 2 4 4 3 2 2 2 2 1 1 1 2 3 4
3 5 5 6 6 4 4 3 2 1 1 1 2 2 1 3 3 3 3 2 2 2 1 2 1 1 0 0 0 0 1 3 4 3 2 1 1 1 2 1 1 2 1 1
Wind_Direction
86 90 208 218 197 190 174 180 261 268 268 175 232 244 228 186 185 196 201 195 193 200 193 166 164 161 151 148 150 153 152 152 140 140 151 150 171 190 195 196 188 174 168 159
45 256 231 204 187 176 165 216 283 304 319 174 258 277 239 192 199 198 200 198 195 187 172 169 166 166 168 167 167 163 162 160 157 163 159 151 144 150 176 215 169 181 176 173
186 237 199 159 161 153 203 195 224 246 350 23 42 324 280 233 208 207 206 198 189 186 184 179 177 179 176 180 182 178 174 167 164 158 131 111 83 60 57 32 293 256 182 171
229 250 184 170 196 162 253 225 196 169 76 316 59 289 287 242 228 220 214 201 198 192 185 181 182 184 186 187 179 176 173 170 164 154 153 158 158 169 195 192 204 273 124 143
242 211 179 207 218 170 218 152 115 107 129 27 9 184 285 281 241 235 220 208 203 194 186 185 186 187 186 179 174 171 163 167 161 158 170 170 166 170 160 135 125 87 68 141
240 238 201 205 198 162 136 69 56 52 70 357 250 181 276 238 226 233 217 205 203 193 186 183 181 174 174 166 163 162 162 168 161 168 176 177 173 167 155 167 169 186 247 245
322 305 261 159 106 66 103 93 39 4 12 255 254 207 252 250 232 221 217 210 200 189 180 174 174 175 174 169 166 161 158 159 165 173 182 182 182 180 179 186 188 194 208 227
184 286 257 201 174 173 166 141 155 190 218 275 308 242 258 260 257 228 208 201 187 182 177 177 180 179 179 174 169 164 165 167 171 180 187 182 185 187 192 189 186 202 213 219
172 246 282 222 175 140 137 161 158 131 146 284 281 283 297 284 289 221 187 177 186 187 180 180 182 179 179 176 176 176 171 169 172 181 182 184 188 190 193 188 184 198 215 210
157 203 281 297 76 41 134 142 104 118 147 242 287 272 255 259 254 244 205 202 204 194 186 179 178 178 178 178 175 169 170 174 174 173 185 189 193 196 191 181 187 199 212 207
136 155 298 39 160 179 113 105 110 116 151 159 240 267 232 222 219 218 219 210 203 197 189 178 174 174 169 165 168 170 170 169 172 178 187 193 194 188 182 189 202 205 206 191
143 127 230 262 258 186 162 162 148 153 207 177 184 263 280 227 218 206 214 211 195 189 184 173 168 162 160 168 174 176 177 178 180 180 182 190 180 171 181 197 204 198 198 197
141 120 92 338 338 2 131 158 149 128 121 157 181 262 314 345 210 205 201 206 184 178 169 164 160 159 167 175 177 181 183 182 177 174 174 170 172 177 192 206 205 201 196 199
124 122 164 196 217 204 200 182 157 137 154 196 221 248 282 264 242 241 222 208 190 178 166 165 162 166 172 177 177 177 181 172 169 167 162 168 195 200 199 197 199 204 201 197
118 152 202 224 230 183 188 190 176 186 188 189 223 228 251 237 226 220 201 182 177 178 166 169 165 164 168 166 175 172 174 168 165 162 165 182 194 196 194 193 199 200 198 199
84 148 163 248 240 189 204 223 195 212 200 217 236 257 256 231 171 181 189 178 185 189 185 179 166 160 166 170 174 170 168 165 160 162 172 177 176 183 196 200 196 194 193 197
96 129 133 224 269 99 251 221 193 208 223 192 215 241 196 185 201 201 202 198 193 190 185 178 172 169 168 171 167 167 167 157 157 160 167 166 179 194 206 201 185 196 201 193
138 119 127 141 112 213 238 221 175 189 257 228 233 247 207 212 220 213 204 199 199 189 184 178 168 163 157 153 152 148 144 154 158 159 170 171 182 190 189 180 196 209 206 208
141 134 121 124 162 259 289 229 155 178 273 262 241 277 239 100 69 319 242 200 202 192 176 166 161 153 144 144 147 137 136 147 154 167 179 182 182 182 184 197 213 214 200 223
67 91 113 128 154 219 245 266 250 121 283 292 213 223 176 118 138 258 240 193 180 154 144 139 135 132 142 154 144 141 153 162 184 193 191 185 181 180 192 203 207 200 191 219
51 55 106 146 188 252 265 289 114 153 243 280 221 207 184 190 212 236 140 139 152 132 133 133 135 145 166 160 148 155 169 201 211 188 163 172 192 194 193 188 187 176 172 185
164 146 165 143 170 250 279 93 160 212 253 242 223 210 192 204 59 84 93 108 111 106 116 131 133 141 147 154 154 164 197 213 184 161 157 172 192 203 187 172 174 168 167 179
189 186 179 181 204 235 228 201 225 200 206 227 208 211 139 100 57 69 81 95 99 109 118 124 136 137 145 157 158 175 207 177 161 152 163 175 181 193 177 173 177 175 171 181
273 137 136 233 271 271 272 257 262 219 217 244 197 152 133 133 126 106 100 101 103 99 121 129 133 139 171 190 181 192 189 167 155 160 165 165 168 181 176 170 175 179 187 192
231 154 136 248 269 316 308 260 256 276 108 85 87 119 147 140 141 144 151 143 134 116 90 98 121 164 211 191 206 217 175 149 145 151 156 161 168 164 164 169 195 204 210 203
217 184 180 222 225 196 243 264 252 222 227 173 131 90 113 148 153 149 157 155 149 143 122 103 117 141 177 131 189 198 164 152 147 149 154 159 164 163 158 145 40 11 247 222